Total_Precipitation_Accumulation
0.95 1.74 1.67 2.06 2.47 4.64 7.18 6.77 11.44 4.40 9.84 6.54 6.10 7.54 7.80 8.89 6.35 6.65 6.19 4.96 6.17 5.41 5.17 3.35 2.37 2.09 3.93 2.10 0.96 0.79 0.75 1.97 0.69 3.41 3.66 0.96 0.65 0.75 0.99 0.63 0.69 0.70 0.89 0.94 1.39 1.70 2.21 1.59 1.63 1.98 2.41 2.52 1.50 1.58 1.26 1.28 1.47 1.90 2.39 2.04 1.99 2.29 2.21 1.76 2.25 1.74 1.22 1.50 1.40 1.32 1.70 1.62 1.97 2.11 1.94 1.68 1.65 1.85 2.02 1.74 2.37 2.43 2.21 1.80 1.96 2.07 2.00 1.88 1.98 2.04 1.78 1.75 2.02 1.69 1.50 1.71 1.67
1.27 1.60 2.15 2.00 4.72 8.06 7.78 5.77 7.90 6.40 6.06 6.35 6.21 6.73 5.69 7.49 8.41 5.59 4.97 6.69 4.51 5.49 3.95 2.50 1.70 0.87 1.09 1.03 1.05 0.74 0.50 0.57 0.31 0.47 0.52 0.52 0.74 0.71 0.55 0.49 0.49 0.67 0.62 0.74 1.25 1.34 1.94 2.09 1.64 2.52 2.13 2.28 1.75 1.25 1.21 1.70 1.85 1.65 1.81 2.05 1.74 2.13 1.86 1.64 2.03 1.49 1.73 1.44 1.40 1.57 1.97 1.68 2.04 2.45 2.54 2.19 2.29 2.36 1.97 2.21 2.28 2.45 2.54 2.03 2.55 2.39 2.37 1.74 1.89 1.55 1.42 1.78 1.65 2.06 1.96 1.89 1.40
1.54 0.98 1.57 2.67 3.65 5.28 6.01 4.58 9.41 6.19 7.21 5.69 6.37 8.65 6.06 7.59 5.69 5.12 5.67 5.54 4.42 4.07 2.88 2.73 1.51 1.58 1.25 1.25 1.46 1.53 2.09 0.96 0.28 0.23 0.66 0.82 0.97 1.64 0.72 0.57 0.41 0.56 0.82 0.77 0.88 1.63 1.94 2.49 1.39 1.51 1.78 1.81 1.76 1.16 1.06 1.22 1.29 1.83 1.72 1.68 1.92 1.59 1.82 1.63 1.43 1.71 1.62 1.93 1.27 1.32 1.80 1.79 1.95 2.18 2.49 2.38 2.11 2.20 1.85 2.19 2.37 2.41 2.56 2.41 2.56 2.44 2.35 1.96 2.13 2.24 1.64 1.78 1.89 1.80 1.59 1.54 1.47
1.03 1.20 2.49 3.12 6.19 4.67 6.87 6.61 7.25 7.75 6.25 5.43 6.02 5.91 8.08 4.74 4.19 5.25 4.15 3.34 3.35 3.16 2.29 2.65 2.55 1.67 2.56 1.42 1.69 1.01 1.39 2.20 0.77 0.50 0.92 0.89 0.48 0.47 0.58 0.46 0.56 0.88 0.98 0.64 1.68 1.32 1.50 1.01 0.74 1.36 1.55 1.65 1.45 1.07 0.96 1.25 1.46 1.66 1.94 1.79 2.24 1.79 1.97 1.53 1.36 1.97 1.92 1.55 1.41 1.53 1.80 1.81 2.30 2.03 2.07 2.12 2.14 1.89 2.17 1.77 2.21 2.76 2.90 2.41 2.50 2.63 2.27 2.01 2.67 2.34 1.86 1.52 1.42 1.59 1.33 1.32 1.57
0.69 1.25 1.81 3.19 5.16 8.51 6.90 6.56 6.73 5.46 6.53 6.33 6.38 5.41 5.33 4.78 4.72 4.56 3.23 3.64 2.94 3.28 2.29 2.07 1.72 1.91 3.06 2.19 2.00 3.19 2.08 1.04 1.09 0.45 0.28 0.43 0.15 0.32 0.36 0.49 0.58 0.51 0.70 1.08 0.91 1.05 1.14 0.79 0.83 0.96 1.14 1.23 1.17 0.93 0.74 0.90 1.09 1.21 1.44 1.71 2.13 2.54 1.81 1.71 1.40 1.62 2.49 2.46 2.02 1.55 2.00 1.69 2.23 2.12 2.06 2.13 2.26 2.00 2.40 2.48 2.74 2.73 2.73 2.95 2.70 2.81 2.46 2.38 2.58 2.39 1.93 1.63 1.51 1.65 1.69 1.35 1.57
0.65 1.10 1.64 2.92 8.20 3.65 5.40 6.53 5.62 5.66 4.90 6.24 5.36 6.24 4.77 5.22 5.08 3.33 2.38 2.55 2.26 2.52 2.50 2.07 2.43 1.77 2.23 1.65 1.86 1.45 1.36 3.07 0.60 0.40 0.18 0.37 0.25 0.27 0.28 0.29 0.41 0.63 0.89 0.89 1.08 1.00 1.35 0.68 0.69 1.01 0.87 1.24 1.36 1.19 0.69 0.93 0.79 0.91 1.49 2.01 2.28 2.50 1.58 1.99 2.30 2.57 2.82 2.47 2.38 2.37 2.08 2.05 2.01 2.16 2.37 1.86 2.07 2.20 2.43 2.51 2.53 2.85 2.86 2.96 2.86 2.54 3.00 2.90 2.09 1.84 1.77 1.65 1.54 1.53 1.14 1.36 1.42
1.24 1.76 3.19 3.37 3.62 4.22 7.89 6.25 4.90 5.38 4.61 6.13 4.30 3.87 3.36 4.98 4.65 3.02 1.50 1.81 1.10 1.67 1.55 1.44 0.85 1.11 1.68 1.43 0.80 1.09 0.97 0.69 1.42 0.43 0.50 0.19 0.18 0.20 0.25 0.34 0.37 0.67 0.72 1.07 1.11 0.89 0.94 0.56 0.73 0.90 1.28 1.64 1.13 0.85 1.08 0.98 1.19 1.28 1.38 2.14 2.46 2.53 2.48 2.17 2.00 2.51 2.96 2.78 2.45 3.50 2.44 2.56 2.49 2.34 2.76 2.09 2.00 2.08 1.98 2.37 2.64 2.74 2.72 2.52 2.86 2.36 2.66 2.43 2.24 1.85 1.62 1.96 1.62 1.39 1.38 1.41 1.65
0.41 2.77 2.96 4.50 5.63 5.30 7.38 3.99 5.34 4.93 5.32 5.58 3.67 3.00 3.64 4.25 3.32 3.78 2.29 3.72 1.31 2.11 1.27 1.31 1.42 2.90 3.10 2.05 2.80 1.43 0.83 1.16 0.79 0.36 0.63 0.41 0.15 0.21 0.25 0.30 0.49 0.56 0.67 0.60 0.84 0.88 0.76 0.62 0.66 0.71 0.81 1.22 1.16 1.23 1.29 1.38 1.48 1.58 2.12 2.61 2.24 2.31 2.64 2.27 2.39 2.54 3.08 2.79 2.98 3.27 2.79 3.15 3.40 2.94 3.38 2.94 2.53 2.54 2.48 2.13 2.88 2.64 2.62 2.42 2.25 1.94 1.81 2.62 2.34 2.36 1.88 1.52 1.72 1.57 1.13 1.28 1.26
2.23 1.47 2.46 3.64 6.73 4.40 4.67 4.93 4.75 5.03 4.85 5.46 4.18 3.18 3.32 3.40 3.29 3.37 2.93 2.36 1.55 1.73 1.59 1.64 1.81 3.72 2.90 2.30 1.83 1.81 1.40 1.28 0.84 0.71 0.31 0.52 0.26 0.22 0.26 0.36 0.33 0.74 0.62 0.71 0.72 0.88 1.17 0.86 0.66 0.88 1.13 1.30 1.50 1.28 1.55 1.68 1.54 1.87 2.04 2.02 2.08 2.45 1.99 2.20 2.59 2.40 2.74 2.75 3.10 3.80 3.81 3.20 3.91 2.85 3.44 3.01 3.17 2.79 2.52 2.38 3.03 2.49 2.51 2.33 2.02 2.20 1.93 2.44 2.30 2.33 2.04 2.00 1.73 1.51 1.43 1.15 1.18
2.05 2.23 5.83 4.15 4.29 5.55 4.41 3.35 4.57 5.86 4.71 4.74 4.25 3.75 3.19 2.94 3.27 2.67 2.58 2.21 2.88 2.58 2.59 2.10 1.71 3.45 1.65 1.96 1.72 1.88 2.24 1.75 0.94 0.74 0.43 0.59 0.90 0.74 0.34 0.33 0.27 0.53 0.71 0.89 0.89 0.99 0.89 1.20 0.94 0.94 1.38 1.47 1.57 1.52 1.51 1.72 2.13 1.79 1.94 1.70 1.93 1.91 2.13 2.12 2.37 2.67 2.74 3.67 4.19 3.89 4.08 3.20 3.11 3.47 3.11 3.51 2.71 2.57 2.67 2.59 2.83 2.57 2.11 2.23 1.83 1.78 1.92 2.20 2.18 2.10 1.96 1.90 1.59 1.27 1.56 1.50 1.30
3.72 1.94 1.60 4.48 4.99 3.72 4.59 4.09 4.63 4.88 4.27 4.10 3.84 2.73 3.36 2.90 2.52 2.89 2.99 2.66 1.81 2.82 1.53 1.76 1.60 2.04 2.16 1.58 3.25 1.89 2.23 1.61 1.44 1.11 1.29 0.79 0.56 0.58 0.62 0.22 0.30 0.37 0.46 0.64 0.62 0.68 0.89 1.36 1.25 1.28 1.37 1.72 1.76 1.52 1.28 1.58 1.48 1.26 1.60 1.79 2.27 1.95 2.19 2.82 2.69 2.65 2.95 3.66 4.25 3.95 3.80 4.11 4.10 3.37 3.86 3.80 3.69 2.67 2.94 3.27 3.21 2.79 2.50 2.46 1.77 1.61 1.65 1.60 2.04 2.23 1.57 1.39 1.88 1.45 1.55 1.24 1.14
3.27 3.33 4.59 5.57 4.07 4.46 4.76 4.64 5.56 5.77 4.08 3.95 3.75 2.85 2.39 2.39 3.14 2.78 2.81 2.87 2.37 2.44 1.94 1.45 2.20 2.12 1.97 1.56 1.62 2.76 1.85 2.06 1.32 1.11 0.84 0.75 0.47 0.70 0.87 0.64 0.52 0.48 0.34 0.46 0.62 0.99 0.94 1.59 1.66 1.91 1.67 1.74 2.28 1.84 1.58 1.60 1.58 1.49 1.82 2.53 2.38 2.37 2.53 3.00 3.00 2.63 3.05 3.81 4.08 3.87 3.96 3.97 3.68 4.33 3.91 3.93 3.96 3.42 3.91 3.16 3.37 3.54 2.78 2.56 2.37 1.80 1.88 2.25 2.17 2.20 2.00 1.52 1.44 1.72 1.28 1.15 1.05
2.13 1.43 4.45 3.79 3.22 4.30 3.87 4.55 5.17 5.15 5.07 4.59 3.60 3.17 2.85 2.49 2.67 2.64 2.84 1.72 1.81 2.79 1.95 1.92 1.29 2.03 1.98 2.15 2.17 2.65 2.70 1.60 1.07 0.65 0.54 0.83 0.66 0.68 0.64 0.41 0.63 1.01 0.74 0.72 0.57 0.74 0.84 1.16 1.63 2.15 2.39 2.16 2.05 2.06 2.12 1.92 1.94 2.24 2.26 2.33 2.59 2.94 2.98 2.47 2.98 2.84 3.68 3.96 4.76 4.38 3.75 3.48 3.38 3.47 4.19 3.39 4.01 3.45 3.43 3.03 3.40 3.25 2.93 3.25 2.46 1.91 2.00 2.08 2.33 2.35 2.09 1.81 2.36 1.79 1.37 1.48 1.09
0.69 1.54 3.17 4.34 2.97 4.18 3.71 4.68 4.11 5.76 5.78 4.45 3.15 3.01 2.38 2.04 2.03 2.00 1.79 2.18 1.81 2.59 0.69 1.09 1.33 1.58 1.17 0.74 2.84 3.13 1.84 1.76 0.81 0.68 0.40 0.62 0.75 0.61 0.20 0.25 0.72 0.99 1.44 1.32 1.40 0.97 1.14 1.15 1.67 1.90 2.11 2.49 2.93 2.36 2.43 2.15 2.60 2.48 3.01 2.60 3.17 3.47 3.62 3.14 3.25 3.06 3.60 3.26 3.62 4.07 4.47 4.09 4.06 3.83 4.45 4.27 4.43 3.79 3.52 3.17 3.20 3.36 3.09 3.12 3.06 2.46 2.29 2.16 2.02 2.32 2.53 2.17 2.32 2.30 1.79 1.69 1.91
0.48 0.74 2.84 2.29 3.39 2.32 3.05 5.41 5.69 3.82 6.02 4.65 2.48 2.36 2.18 1.87 1.87 1.63 1.86 2.21 1.55 1.07 0.75 0.56 0.77 3.70 1.85 2.46 2.25 2.26 1.70 1.46 0.80 0.49 0.37 0.79 0.50 0.70 0.46 0.44 0.51 0.84 1.04 1.00 1.29 1.83 1.51 1.37 1.26 1.62 2.00 2.15 2.22 2.44 3.22 3.08 2.60 2.95 2.88 3.22 3.48 3.27 4.41 4.53 4.02 4.98 4.24 3.78 4.09 3.98 4.64 5.02 5.38 5.59 5.45 4.86 5.00 4.32 3.65 3.38 3.14 2.99 3.45 2.99 3.17 2.96 2.89 2.70 2.73 2.11 1.71 3.00 3.01 2.07 2.35 2.02 2.42
0.24 0.95 2.04 3.72 3.45 2.57 2.73 3.46 3.30 4.78 5.00 4.75 3.20 2.29 2.49 2.23 1.97 1.65 1.56 1.23 0.72 0.88 0.99 1.56 0.98 2.15 1.57 2.08 1.21 0.89 0.84 0.85 0.56 1.00 1.17 1.06 0.94 1.10 0.84 0.60 0.57 0.66 0.77 0.75 1.48 1.18 1.47 1.50 1.57 1.73 1.53 1.72 2.60 2.87 2.81 3.26 2.87 3.47 3.42 4.03 3.52 4.14 4.31 4.39 5.09 5.34 5.79 5.45 5.00 4.81 5.16 5.52 5.69 4.51 5.59 4.50 5.27 4.88 4.15 3.47 3.09 2.95 3.24 2.89 3.54 3.24 3.39 2.68 3.12 2.11 1.96 2.16 2.05 2.95 2.52 2.68 2.72
0.22 1.01 2.63 2.57 4.15 3.07 4.34 4.67 2.37 5.48 3.17 4.06 2.03 2.15 2.55 1.64 1.14 1.90 1.10 1.11 1.36 0.54 0.89 0.62 1.38 1.09 1.55 1.65 1.00 0.67 0.46 0.63 0.50 0.56 0.56 0.77 0.82 1.09 1.05 0.93 0.89 0.74 1.05 1.23 1.14 1.39 1.78 1.42 1.87 1.74 1.84 1.89 2.23 2.48 2.71 3.07 2.63 3.32 3.89 4.30 4.60 5.22 4.95 5.52 5.24 5.88 6.86 5.75 5.79 6.09 5.46 4.91 5.08 4.60 4.39 4.65 4.64 4.30 3.82 4.03 3.41 2.72 2.53 3.48 3.44 3.87 2.88 3.06 2.81 2.89 2.68 2.56 2.60 2.66 3.25 3.55 3.07
0.34 1.81 1.62 2.49 2.52 2.80 3.57 4.19 4.01 2.79 3.50 2.72 2.19 2.10 2.53 1.84 1.13 1.55 0.70 1.06 1.05 0.61 0.96 0.76 0.90 1.17 1.19 0.85 0.70 0.52 0.26 0.26 0.27 0.32 0.31 0.38 0.43 0.72 0.76 0.82 0.64 0.91 1.02 1.16 0.76 1.28 0.88 1.60 1.19 1.35 1.59 1.72 2.26 2.05 2.15 2.77 3.52 3.58 3.83 4.90 4.82 5.65 6.18 5.61 5.66 5.84 5.89 5.58 6.51 6.16 6.15 5.92 5.45 5.41 5.64 5.60 5.32 4.18 4.54 4.10 3.67 3.01 3.39 3.36 3.43 3.74 2.89 3.30 2.78 2.88 2.89 2.96 3.06 2.98 3.23 2.99 2.47
0.47 0.82 1.78 2.66 1.79 1.57 1.92 1.95 3.35 3.56 2.47 2.28 2.28 1.85 2.19 2.23 0.82 1.13 2.33 1.40 1.05 0.81 1.18 1.34 1.04 0.96 0.91 0.79 0.68 0.54 0.25 0.56 0.71 0.56 0.68 0.79 0.49 0.47 1.13 0.88 1.47 1.41 1.36 0.84 0.99 1.17 1.24 1.73 0.94 1.32 1.62 1.90 2.21 2.23 2.13 2.63 2.96 3.70 5.02 4.60 5.62 6.08 5.51 4.64 5.15 5.16 5.08 5.03 5.48 5.99 6.40 5.14 4.70 4.89 4.93 4.02 4.51 3.86 2.67 3.40 3.64 3.72 4.17 3.53 3.14 3.80 3.71 3.51 2.61 2.36 2.40 2.76 3.00 3.23 2.69 2.68 2.01
0.34 0.67 2.13 2.52 1.12 1.69 1.29 2.73 2.73 3.14 2.36 2.11 2.20 1.42 2.24 1.66 1.96 0.84 1.52 1.52 1.41 1.43 1.55 0.96 1.54 1.43 1.01 0.97 0.74 0.56 0.38 0.45 0.50 0.84 0.93 1.34 1.81 1.16 1.54 1.12 1.25 1.38 1.36 1.73 1.47 1.59 1.49 1.24 1.30 2.45 3.22 2.93 2.21 3.09 2.96 3.32 3.61 4.31 4.30 3.40 4.64 5.25 5.12 4.68 5.34 5.03 5.19 5.41 5.41 5.31 5.01 4.71 4.23 5.05 3.31 3.79 4.09 3.39 3.38 3.47 3.78 3.43 3.81 3.10 3.00 2.91 2.66 2.77 2.25 1.92 2.09 2.02 2.39 3.21 3.23 2.74 1.96
1.11 0.61 1.18 2.29 1.01 1.33 1.48 2.55 2.93 2.58 2.42 2.97 1.94 1.86 1.83 1.48 1.64 1.36 1.19 1.89 1.54 1.87 1.18 1.88 2.06 1.70 0.84 1.01 0.70 0.59 0.56 0.47 0.89 0.91 0.61 0.72 1.30 1.56 1.77 1.59 1.40 1.02 1.25 1.30 1.54 1.46 2.12 1.79 1.92 2.08 2.17 2.64 2.64 2.95 2.87 3.11 3.85 3.99 5.41 5.21 4.90 4.64 4.09 4.16 3.95 4.44 4.97 4.37 4.27 4.70 3.61 3.45 3.06 3.69 3.84 4.40 4.26 3.32 2.54 2.73 3.37 2.89 2.48 3.05 2.98 3.08 2.86 2.85 2.49 2.79 2.89 2.55 2.24 2.18 2.20 2.13 2.09
0.09 0.48 0.59 0.81 0.83 1.17 1.14 1.33 1.38 1.99 3.07 4.03 2.20 1.74 2.33 1.79 0.85 1.10 1.12 2.48 2.44 1.03 1.31 1.42 1.72 1.73 1.23 0.96 0.82 0.64 0.79 0.49 0.99 0.95 1.09 1.11 1.45 0.92 0.80 1.54 1.32 1.11 0.98 1.29 1.71 1.74 1.77 2.36 1.97 2.78 2.74 3.02 2.45 3.03 4.02 3.54 4.17 4.16 4.24 3.95 3.81 3.32 3.87 4.06 3.56 4.41 3.90 4.07 5.51 4.10 3.74 3.99 3.76 3.34 3.57 2.87 3.14 2.31 2.37 2.81 2.48 3.14 2.86 2.74 2.94 2.71 2.88 3.08 2.51 3.05 2.54 2.18 2.02 2.05 1.60 1.62 1.62
0.82 0.63 0.58 0.57 0.42 0.95 0.52 1.08 1.87 2.50 2.54 2.71 1.68 2.27 1.53 1.42 1.42 1.26 1.01 2.30 1.64 0.99 0.70 1.08 1.09 1.13 1.29 0.86 0.86 0.70 0.53 0.46 0.92 0.87 0.57 1.09 1.15 1.55 1.41 1.01 1.05 1.08 0.82 1.21 1.20 1.77 1.73 2.55 1.88 3.04 3.09 2.58 2.72 2.57 2.65 2.78 3.27 3.22 3.96 3.42 3.53 3.44 3.93 4.97 4.94 4.17 3.81 4.40 4.43 4.30 4.50 4.53 3.69 3.02 2.98 3.43 2.82 2.93 2.43 2.59 2.77 2.89 3.15 2.56 2.50 1.76 2.21 2.73 2.72 2.54 1.83 1.71 2.05 2.17 1.62 1.55 1.72
0.11 0.75 0.44 0.70 0.52 0.23 0.46 1.28 2.19 2.29 2.05 2.55 2.56 1.70 1.76 1.42 1.70 0.89 1.46 0.96 1.07 0.58 0.95 0.90 1.04 1.33 1.36 1.29 0.89 0.90 0.64 0.52 0.79 1.32 0.83 1.55 1.58 1.43 0.94 1.01 1.01 0.88 0.95 1.28 1.54 1.44 1.91 2.35 1.97 2.45 2.87 2.18 2.65 2.35 3.47 2.65 3.34 3.01 2.59 3.44 3.15 3.75 3.33 4.12 4.41 4.87 5.03 4.13 3.88 4.54 4.67 4.58 3.92 3.30 2.87 3.45 3.23 3.32 2.60 2.27 2.87 3.19 3.68 3.23 2.77 3.23 2.75 2.53 2.21 3.08 2.08 2.09 1.93 1.93 1.22 1.41 1.84
0.24 0.28 0.40 0.48 0.62 0.51 0.76 0.98 2.19 3.16 4.65 3.43 2.35 1.83 2.30 1.28 1.12 0.53 1.13 0.62 0.60 0.73 0.26 0.70 0.88 1.37 1.06 0.91 0.91 0.82 0.57 0.53 1.05 0.78 1.10 1.05 1.08 0.95 0.82 0.94 0.98 1.13 1.31 1.21 1.48 1.59 2.14 1.67 2.12 1.93 2.60 2.41 2.25 2.63 2.49 2.66 2.79 2.44 2.53 3.24 3.30 3.26 3.33 3.37 3.27 4.36 5.26 4.50 5.03 5.07 4.65 5.65 5.16 4.21 4.69 4.17 3.56 3.11 3.23 3.79 3.78 3.89 4.11 3.53 3.23 3.53 2.95 2.29 2.23 1.84 2.73 2.27 2.25 1.86 1.55 1.75 1.61
0.07 0.37 0.12 0.35 0.56 0.61 1.11 1.19 1.71 1.80 2.64 3.45 3.41 3.02 2.33 1.37 0.68 1.36 1.41 0.84 0.78 0.35 0.37 0.22 0.46 0.44 0.91 0.94 1.29 0.65 1.06 1.01 0.62 0.89 1.13 0.94 0.81 0.71 1.02 1.52 1.73 1.88 1.55 1.31 1.37 2.08 2.14 1.67 1.57 1.59 1.99 1.99 2.07 2.01 2.14 2.77 3.20 2.71 2.87 3.22 3.30 3.48 3.38 3.18 3.23 3.19 4.45 5.08 5.10 5.97 6.23 6.19 4.13 4.11 3.39 4.10 4.01 3.56 3.12 2.92 2.90 2.86 3.23 3.18 3.92 3.04 3.00 2.90 2.43 2.28 2.25 1.75 1.50 2.01 1.38 1.40 1.56
0.02 0.12 0.45 0.49 1.00 0.74 1.16 1.02 1.16 1.96 2.18 2.77 4.21 3.60 2.97 1.38 0.72 1.46 1.28 0.43 0.36 0.59 0.20 0.20 0.69 0.68 0.54 0.56 0.98 0.64 0.94 1.19 1.65 0.88 0.83 0.74 0.65 0.78 1.01 1.44 1.66 1.45 1.31 1.67 1.60 1.83 2.36 2.29 2.15 1.57 1.41 1.28 1.74 1.89 2.30 2.49 3.04 2.99 2.60 2.99 3.07 2.99 3.36 3.22 3.35 3.16 3.17 5.09 4.78 4.96 5.30 5.39 4.22 4.49 3.36 2.99 3.22 3.42 3.13 3.06 2.79 3.04 3.56 3.23 3.61 4.20 3.34 2.57 2.64 2.71 2.82 2.73 1.80 1.87 1.60 2.14 1.11
0.04 0.07 0.34 0.61 0.73 0.73 1.04 1.80 1.19 1.97 2.71 2.87 6.20 4.92 3.25 2.50 1.20 1.50 0.82 0.42 0.61 0.68 0.26 0.26 0.16 0.29 0.46 0.57 0.98 1.34 0.83 0.45 0.94 0.61 0.89 0.91 0.57 0.99 0.87 1.16 1.54 1.47 2.16 1.70 1.59 1.48 1.35 1.51 2.12 2.16 2.51 1.56 1.39 1.61 2.05 1.67 2.83 3.03 2.71 2.84 2.77 2.28 2.69 1.95 2.73 2.65 3.00 4.69 3.99 5.10 5.89 4.02 3.36 3.02 2.79 2.94 2.83 3.05 3.02 3.78 3.64 3.48 3.19 3.28 2.85 3.77 4.31 3.11 2.77 3.01 2.46 3.13 2.27 1.69 1.41 1.57 2.27
0.02 0.18 0.74 1.08 1.17 1.26 1.48 1.77 2.25 2.44 2.07 2.91 4.09 4.14 4.65 5.19 2.51 1.21 0.74 0.44 0.46 0.59 0.25 0.75 0.53 0.44 0.41 0.50 0.66 0.70 1.25 0.46 0.90 0.52 0.87 0.96 1.17 1.46 1.25 1.17 1.65 1.95 2.58 1.97 1.44 1.71 1.56 1.14 1.22 1.79 1.74 1.51 1.80 1.99 2.01 1.69 1.87 2.07 2.17 1.91 1.39 1.29 2.47 2.37 2.64 2.69 2.52 4.06 3.61 3.95 4.14 3.94 2.87 2.46 2.57 2.75 3.37 2.83 3.38 3.53 3.25 3.08 2.63 2.88 3.44 3.94 4.46 3.84 3.00 2.30 2.40 2.25 1.90 1.86 1.68 1.43 1.17
0.03 0.07 0.59 0.88 1.08 1.59 1.36 2.10 2.46 2.28 2.81 2.63 2.77 3.71 2.89 3.74 3.70 1.29 0.59 0.64 0.56 0.35 0.53 0.18 0.69 0.68 0.33 0.42 0.59 0.31 0.62 0.53 0.52 0.58 0.97 1.25 1.09 1.94 1.39 1.80 1.75 2.24 2.62 2.27 1.72 1.58 1.08 0.93 0.71 0.89 0.99 1.40 2.13 2.40 1.90 1.58 1.50 1.76 1.81 1.39 1.17 1.63 1.86 1.98 2.52 2.41 2.56 2.90 2.98 2.99 3.64 4.00 3.69 3.47 2.71 3.33 3.46 3.08 3.10 2.91 2.70 2.62 2.34 2.92 3.39 3.86 3.45 3.42 2.93 1.93 2.32 1.76 1.56 1.46 1.24 1.16 1.11
0.35 0.20 0.29 0.96 1.16 2.40 1.34 1.22 1.94 2.08 1.77 1.41 2.04 2.86 2.57 3.54 2.00 1.77 1.41 1.40 0.45 0.58 0.40 0.38 0.51 0.59 0.73 0.51 0.32 0.38 0.29 0.64 0.58 0.64 0.86 0.55 0.99 1.06 1.78 2.15 1.99 2.83 2.22 2.26 1.46 1.11 0.88 1.11 0.74 0.62 0.71 0.96 1.00 1.64 1.52 1.24 0.88 1.40 1.61 1.68 1.50 2.15 2.83 1.74 1.22 2.02 2.19 2.54 3.11 2.51 2.69 3.45 3.63 3.19 3.35 3.55 2.67 2.68 2.61 2.79 2.39 2.29 3.05 3.37 3.71 3.62 3.34 2.55 2.44 2.20 2.43 2.20 1.55 1.38 1.29 0.90 0.87
0.13 0.20 0.95 0.42 0.63 2.60 1.33 0.81 1.59 1.53 1.44 1.49 1.31 2.65 2.86 2.39 1.88 1.36 2.55 2.99 1.13 0.80 0.35 0.20 0.79 0.95 0.39 0.34 0.43 0.27 0.35 0.51 0.68 0.57 0.71 0.71 0.86 1.18 1.11 2.01 2.57 2.53 2.65 2.38 1.88 1.17 1.17 1.48 1.11 1.24 1.00 0.70 1.09 1.82 1.76 1.66 1.88 2.52 2.37 2.54 2.86 2.88 2.12 2.27 1.73 2.28 2.10 2.35 2.48 1.98 2.86 3.44 3.26 3.95 3.50 3.21 2.73 2.55 2.83 2.74 2.34 3.03 2.80 3.29 3.15 3.01 2.79 2.64 2.11 1.68 1.72 2.05 1.34 1.22 1.36 1.07 0.91
0.08 0.17 0.31 0.69 0.49 1.41 1.75 1.73 1.38 1.66 1.88 1.85 2.12 2.97 2.20 2.00 1.80 1.53 1.27 2.05 0.95 0.47 0.49 0.17 0.42 0.47 0.28 0.41 0.17 0.15 0.26 0.15 0.41 0.90 1.37 0.49 0.75 0.47 0.78 1.69 2.32 2.40 1.85 1.96 1.50 1.54 1.01 1.27 1.60 1.06 1.03 1.24 0.96 1.33 1.96 2.03 2.20 2.91 2.67 2.41 2.41 2.66 2.49 1.90 1.41 1.51 1.72 2.54 2.59 2.27 3.04 3.76 3.55 3.44 3.00 2.47 2.53 2.48 2.81 2.61 2.57 2.59 3.27 3.04 2.94 2.80 2.52 2.09 2.53 1.67 1.54 1.70 1.29 1.32 0.96 0.79 0.54
0.25 0.09 0.50 0.98 0.98 0.85 2.24 0.87 1.64 1.74 1.96 2.26 1.05 1.94 1.95 1.08 1.43 1.28 1.29 1.41 0.94 0.31 0.27 0.38 0.89 0.47 0.22 0.22 0.13 0.15 0.37 0.40 0.62 0.76 0.59 0.57 0.71 0.76 0.47 0.89 1.63 1.74 1.62 1.41 1.55 1.19 1.05 1.27 1.34 1.35 1.18 0.62 1.45 1.77 2.26 2.12 2.42 2.62 2.21 1.96 1.79 1.84 2.33 2.88 2.43 2.41 2.11 2.14 1.87 1.96 1.73 2.06 3.46 2.89 3.04 3.00 3.13 2.55 2.63 2.81 2.80 2.48 2.71 2.63 2.77 2.50 2.16 2.70 2.89 2.20 1.53 1.43 1.24 1.19 1.49 0.65 0.87
0.25 0.47 0.32 0.78 0.59 1.03 1.30 0.97 1.37 1.39 1.41 2.14 1.47 1.92 1.85 1.55 0.84 1.45 1.15 1.38 0.96 0.50 0.29 0.72 0.63 0.16 0.25 0.14 0.36 0.59 0.50 0.32 0.37 0.48 0.48 0.37 0.56 0.32 0.61 0.94 0.76 1.33 1.57 1.34 1.36 1.21 1.44 1.66 1.35 1.29 1.02 1.24 1.66 1.84 2.02 1.51 1.56 1.74 1.48 1.34 1.26 1.58 3.22 2.45 2.86 2.15 2.07 2.35 1.77 1.99 2.64 2.93 3.05 2.96 3.45 3.17 3.13 3.37 3.35 2.74 2.68 2.14 2.63 2.57 2.46 2.31 2.65 2.23 2.15 1.80 1.59 1.69 1.04 0.87 0.84 0.71 0.88
0.19 0.36 0.60 0.76 1.09 1.36 1.70 1.06 0.68 0.89 1.64 1.83 2.07 1.85 2.17 1.65 2.11 2.23 2.17 1.06 1.39 0.64 0.80 0.95 0.57 0.38 0.49 0.70 0.53 0.87 0.52 0.69 1.16 0.58 0.33 0.36 0.55 0.54 0.64 0.60 0.92 1.27 1.62 1.69 1.18 1.35 1.83 1.67 1.40 1.27 0.88 1.18 1.41 1.21 1.17 1.19 0.89 1.70 1.40 1.38 0.98 1.23 2.09 2.41 1.42 1.23 2.26 2.33 1.75 2.88 2.27 2.13 2.77 3.15 4.50 4.04 3.34 3.49 2.47 2.37 2.49 1.76 2.04 2.32 2.35 2.08 1.73 2.19 1.79 1.69 1.63 1.71 1.54 0.77 0.82 0.86 0.92
0.04 0.11 0.22 0.77 0.52 0.79 0.82 1.11 0.91 1.49 1.99 1.76 2.59 2.08 2.01 1.61 1.86 2.20 2.66 1.85 1.79 1.30 1.31 1.51 0.81 1.02 1.16 1.41 1.36 0.53 0.53 1.21 0.92 0.71 0.59 0.45 1.27 1.05 1.08 1.01 0.94 1.04 1.04 0.86 1.08 1.70 1.67 1.47 1.62 1.60 1.19 1.63 1.33 1.03 1.39 0.78 0.81 1.31 1.06 0.79 1.15 1.27 1.40 1.16 1.37 1.48 1.89 2.03 2.56 2.69 2.83 2.38 2.41 2.90 2.72 2.75 2.29 2.09 1.80 2.58 1.92 1.84 2.38 2.21 1.87 1.67 1.81 2.13 1.82 1.86 1.97 2.21 1.42 1.10 0.74 1.02 0.95
0.12 0.07 0.32 0.47 0.50 1.00 0.94 1.18 1.27 2.43 1.69 1.97 2.13 2.47 2.81 2.38 2.21 2.26 2.62 1.64 1.48 0.84 0.81 0.94 1.55 0.81 1.59 1.14 1.21 1.23 1.07 0.98 0.97 0.69 1.06 1.04 1.30 1.09 0.88 0.90 1.29 0.93 0.79 0.95 1.02 1.67 1.80 1.83 1.87 1.68 1.27 1.41 1.56 1.59 0.98 1.04 1.35 1.10 1.23 1.48 1.41 0.94 0.80 0.87 0.89 0.97 1.83 2.57 1.64 2.09 1.81 1.67 1.31 1.10 1.56 1.31 1.58 1.98 1.97 1.95 1.87 1.78 1.39 1.63 1.84 1.51 1.93 1.79 1.70 1.73 1.79 1.73 1.60 1.20 1.15 1.10 1.33
0.04 0.12 0.39 0.59 0.48 0.62 0.79 1.67 1.30 2.02 1.58 2.97 2.92 2.82 3.67 3.13 2.65 2.67 2.45 1.53 1.80 1.40 1.15 1.69 0.98 1.14 1.13 1.44 0.79 1.03 1.32 1.28 0.90 1.33 1.26 1.26 1.39 1.17 0.76 0.96 1.00 1.24 1.30 1.00 1.53 1.81 1.52 1.99 2.12 2.17 1.69 1.36 1.19 1.54 1.17 1.18 1.13 1.43 1.41 1.52 1.11 0.89 0.85 0.90 1.03 1.43 1.87 2.01 1.29 1.68 1.72 0.96 1.16 1.04 1.33 1.39 1.06 1.31 2.16 1.51 1.56 1.97 1.58 1.55 1.11 1.29 1.30 1.47 1.55 1.17 1.53 1.88 1.08 1.17 1.00 1.32 1.36
0.02 0.04 0.14 0.23 0.70 0.31 0.72 1.75 1.73 2.80 1.02 3.03 2.41 1.64 3.15 3.84 3.33 3.29 2.56 1.76 2.10 2.57 1.92 1.24 1.73 1.95 1.43 1.18 1.11 0.70 1.02 1.59 1.26 1.28 1.23 2.20 1.46 1.49 1.38 1.35 1.47 0.97 1.35 1.15 1.48 1.78 1.70 2.09 2.12 1.90 1.42 1.11 1.00 1.19 1.12 1.35 1.63 1.72 1.29 1.01 1.63 0.75 0.94 1.00 0.81 1.11 1.44 1.89 1.71 2.27 1.79 1.24 1.58 1.48 0.98 1.11 1.05 1.25 1.29 1.12 1.47 1.29 1.41 1.60 1.37 1.21 1.12 0.98 1.42 1.95 1.76 1.64 1.14 1.14 0.92 0.81 0.88
0.00 0.00 0.02 0.12 0.12 0.34 0.42 0.94 0.48 1.75 1.81 1.26 2.52 3.08 3.39 2.61 3.25 2.47 2.54 1.84 2.74 2.40 2.74 2.16 2.03 1.89 1.43 1.46 1.02 1.13 1.22 1.10 1.72 1.84 2.06 2.23 1.29 1.61 1.36 1.28 1.68 1.44 1.22 1.15 1.32 2.00 1.59 1.85 1.81 1.31 1.25 0.59 0.80 0.94 0.82 1.49 1.59 1.25 1.35 1.06 1.11 1.32 0.73 0.91 1.17 0.99 1.27 1.83 1.91 1.45 2.10 2.09 1.46 1.39 0.83 0.66 1.20 1.06 1.42 1.54 1.41 1.42 1.43 1.13 1.38 1.25 1.07 0.87 0.94 1.07 1.12 1.32 1.51 1.42 0.90 0.60 0.68
0.00 0.00 0.02 0.03 0.03 0.40 0.13 0.21 0.20 0.82 1.60 0.86 0.98 2.17 3.56 1.71 1.88 1.37 1.93 2.17 2.07 2.34 2.32 2.11 1.68 1.49 0.69 0.94 0.88 1.75 2.44 2.35 2.04 1.65 1.91 2.48 2.01 1.58 1.48 1.38 2.09 1.59 1.46 1.80 2.14 1.90 1.42 1.33 1.40 1.63 1.55 0.97 0.50 0.71 1.09 0.67 0.93 1.09 1.58 1.20 1.07 0.76 0.47 0.71 1.10 1.35 0.90 1.83 1.94 1.96 2.26 1.97 1.59 1.63 1.73 1.51 1.07 0.96 1.12 0.96 1.27 1.27 1.50 1.29 1.07 1.07 1.43 0.95 1.10 1.12 0.99 1.08 1.09 1.29 1.65 1.01 0.67
0.00 0.04 0.00 0.00 0.03 0.24 0.20 0.29 0.46 0.75 1.48 1.39 0.67 1.02 2.61 1.89 1.76 1.92 2.01 1.61 2.10 2.77 1.93 1.99 1.95 1.53 0.83 0.89 1.17 1.60 3.03 3.24 2.38 2.74 2.57 2.17 2.13 1.67 1.55 1.31 1.56 2.05 1.95 1.97 1.84 1.92 1.59 1.85 1.97 1.82 1.18 1.28 1.13 1.38 1.24 0.85 1.07 1.11 1.04 1.15 0.94 0.88 0.42 0.75 1.41 1.89 1.73 1.73 2.04 1.95 1.70 1.51 1.33 1.69 1.69 1.32 1.28 1.28 1.21 1.29 1.17 1.05 0.98 1.10 1.01 1.30 1.13 0.72 0.77 0.97 0.95 0.77 0.92 1.12 1.24 0.99 0.80
0.02 0.00 0.02 0.01 0.04 0.08 0.03 0.20 0.40 0.84 0.49 0.94 0.84 0.41 1.52 1.86 1.68 1.33 1.96 1.90 1.86 2.23 1.62 2.29 2.13 1.18 1.27 0.66 1.30 2.12 2.82 3.31 3.73 2.89 2.27 2.24 2.82 2.06 1.65 2.26 1.97 1.46 2.13 3.36 3.10 2.69 2.53 1.83 1.41 1.49 1.48 1.02 1.57 1.31 1.02 0.91 1.01 1.12 1.15 0.80 1.36 0.75 0.79 1.23 0.88 1.45 1.77 2.36 1.68 1.01 1.36 1.74 1.67 1.06 1.09 0.93 1.10 0.80 0.83 1.14 0.74 0.72 0.71 0.98 0.68 0.54 0.49 0.66 0.57 1.05 0.91 0.75 0.91 0.94 1.14 1.18 1.00
0.02 0.01 0.01 0.01 0.09 0.03 0.01 0.03 0.13 0.26 0.17 0.92 0.60 0.45 1.01 1.18 1.76 1.05 1.73 2.54 2.12 2.19 2.19 1.61 1.65 1.14 0.81 0.88 0.88 1.17 2.19 2.54 2.91 2.66 2.55 2.12 2.91 2.22 1.88 1.95 1.63 1.44 1.91 2.51 3.13 2.96 2.40 3.13 3.15 2.61 2.19 2.31 2.15 1.70 1.22 1.02 1.52 1.57 1.24 1.24 0.61 1.14 0.99 1.82 1.58 0.71 1.11 1.01 1.00 1.69 1.35 1.38 0.94 1.16 0.86 0.76 0.61 0.65 0.96 0.77 0.77 1.01 0.59 0.71 0.68 0.97 0.74 0.53 0.43 0.64 0.65 0.71 0.57 0.92 0.82 1.31 1.42
0.00 0.00 0.00 0.00 0.04 0.07 0.05 0.10 0.24 0.29 0.13 0.41 0.27 0.44 0.70 1.23 1.77 1.36 1.67 1.76 1.32 1.39 1.58 1.39 1.60 1.06 0.77 0.83 0.89 0.97 1.46 1.84 3.26 3.38 2.55 3.27 3.39 3.38 3.05 2.26 2.12 1.86 2.43 2.43 3.70 4.70 3.55 3.10 2.69 2.85 2.78 2.39 2.19 1.45 0.92 1.31 1.47 1.72 1.60 1.19 0.97 0.88 1.10 1.36 1.49 1.24 0.98 1.25 1.38 0.87 0.93 1.30 0.67 0.53 0.79 0.62 0.75 0.66 0.78 0.72 0.69 0.91 0.84 0.66 0.66 0.98 0.85 0.68 0.47 0.72 0.76 0.61 0.81 0.71 0.94 0.92 1.12
0.00 0.00 0.00 0.01 0.02 0.02 0.07 0.30 0.53 0.39 0.23 0.22 0.14 0.28 0.21 1.33 1.32 0.90 1.49 0.82 0.88 0.89 1.37 1.35 1.29 1.04 0.95 0.84 0.69 0.78 1.15 1.45 2.62 3.20 3.72 3.47 3.71 3.33 3.76 2.69 2.67 2.29 2.65 3.28 3.05 3.58 2.87 3.11 3.51 3.63 3.30 2.44 1.91 1.15 1.43 1.80 3.11 2.77 1.82 1.83 1.46 1.74 0.91 0.81 1.21 0.96 1.66 1.18 1.06 0.79 0.93 0.67 0.82 0.59 0.79 0.65 0.55 0.57 0.33 0.41 0.53 0.46 0.86 1.19 1.20 0.87 0.92 0.76 0.43 1.08 0.76 0.99 0.77 0.61 0.52 0.88 1.03
0.00 0.01 0.20 0.09 0.27 0.57 0.52 1.15 1.33 0.40 0.30 0.16 0.30 0.38 0.46 0.85 1.81 1.24 0.46 0.37 0.30 0.54 1.16 1.51 1.42 0.84 0.79 0.93 1.09 0.87 1.46 1.38 1.59 2.42 3.25 3.56 2.81 3.05 2.47 2.65 3.23 2.78 3.19 2.52 2.99 2.82 2.30 2.44 3.83 2.43 2.48 2.63 2.16 2.40 3.06 2.76 2.53 2.92 3.04 1.23 1.24 2.04 1.44 1.11 0.72 0.59 0.90 0.93 1.29 1.58 1.11 0.90 0.37 0.54 1.04 0.85 0.40 0.48 0.78 0.67 0.68 0.64 0.84 0.80 0.95 1.15 1.21 1.06 0.83 1.01 0.89 0.91 1.23 0.93 0.80 1.14 1.31
0.00 0.03 0.05 0.24 0.77 1.09 0.54 1.23 0.72 0.47 0.68 0.67 0.51 0.69 1.38 0.47 0.58 0.48 0.43 0.28 0.67 0.45 0.52 0.67 1.04 1.01 0.84 0.83 1.06 1.65 1.62 1.08 1.53 1.29 1.62 1.96 2.58 2.75 3.03 2.82 3.21 3.01 3.46 3.08 2.93 2.65 1.84 2.57 2.31 2.16 2.01 3.32 2.71 2.96 3.28 3.05 2.57 2.70 2.47 1.47 1.64 1.62 1.67 0.87 0.56 0.77 0.73 0.84 1.00 1.35 1.20 0.81 0.63 0.73 0.66 0.74 0.56 0.22 0.49 0.34 0.36 0.60 0.31 0.47 0.85 0.77 0.88 1.16 1.38 1.10 1.01 0.92 1.03 1.36 1.01 0.79 0.69
0.01 0.03 0.06 0.06 0.30 0.27 0.38 0.29 0.25 0.37 0.26 0.39 0.55 0.93 0.78 0.48 0.36 0.17 0.39 0.45 0.29 0.55 0.59 0.51 0.94 0.87 0.82 0.72 1.05 1.19 1.22 1.38 1.43 1.25 1.49 1.97 2.67 3.31 2.31 2.11 2.31 2.74 2.97 3.32 3.07 2.30 1.67 1.95 1.83 2.06 2.26 3.35 4.13 3.82 3.76 2.92 2.65 2.10 2.03 2.00 1.33 0.99 0.90 0.86 0.80 1.05 0.86 0.87 1.04 1.18 1.20 1.16 1.12 0.74 0.55 0.25 0.38 0.21 0.35 0.38 0.52 0.63 0.40 0.31 0.56 0.52 0.91 0.87 1.01 0.92 0.90 1.17 0.99 1.16 1.19 0.96 0.78
0.08 0.02 0.03 0.05 0.14 0.20 0.50 0.43 0.66 0.34 0.91 0.58 0.69 0.35 1.28 0.72 4.08 0.32 0.60 0.20 0.21 0.19 0.31 0.40 0.60 1.18 1.32 1.38 1.23 1.25 1.35 2.03 2.08 1.36 1.69 2.26 2.68 2.85 2.15 2.04 2.33 3.29 3.50 2.16 2.70 2.77 1.67 1.55 0.98 1.29 2.46 2.90 3.08 4.28 4.10 3.08 2.24 1.73 1.78 2.03 2.03 1.77 1.46 0.98 0.85 1.29 1.21 1.10 1.60 0.93 1.10 0.93 0.67 0.96 1.11 1.32 0.43 0.79 0.65 0.67 0.87 0.80 0.55 0.58 0.47 0.61 0.39 0.63 0.99 0.72 1.06 0.81 1.09 0.62 0.61 0.54 0.54
0.02 0.09 0.04 0.02 0.03 0.01 0.10 0.27 0.20 0.23 0.34 0.49 0.85 0.61 0.61 1.12 0.54 0.45 0.39 0.39 0.31 0.31 0.51 0.66 1.27 1.20 1.36 1.48 1.63 1.37 1.44 2.11 1.76 1.70 2.16 2.79 2.17 2.38 2.10 2.03 2.33 2.60 3.02 2.13 1.66 1.74 1.71 1.84 1.39 1.87 2.12 2.83 3.78 3.74 5.30 3.78 2.62 2.25 2.13 2.02 1.57 1.16 0.83 1.20 1.73 1.59 1.14 1.60 1.51 1.16 1.07 1.13 0.86 0.66 1.15 1.02 0.90 0.53 0.28 0.81 1.03 0.98 0.63 0.64 0.81 0.80 0.81 1.07 1.06 1.47 1.30 1.05 0.97 0.63 0.74 0.61 0.54
0.02 0.02 0.06 0.00 0.01 0.01 0.16 0.04 0.07 0.08 0.22 0.43 0.26 0.49 0.38 0.22 0.45 0.45 0.86 0.91 0.65 0.51 0.54 0.43 1.11 1.24 1.11 1.20 1.21 1.57 1.28 1.59 1.34 1.71 2.46 2.42 2.38 1.08 1.04 1.41 2.07 2.49 2.63 1.54 1.49 1.26 1.61 1.57 1.41 2.33 2.26 3.01 2.61 2.21 2.92 3.96 2.16 2.72 1.89 2.55 1.74 1.56 0.93 0.72 0.80 0.74 0.80 0.88 1.18 1.07 0.95 1.14 0.64 0.62 0.74 0.56 1.08 0.47 0.56 0.55 0.47 0.62 0.70 0.82 1.21 1.02 0.77 0.61 0.92 1.13 1.44 1.15 1.08 0.76 0.61 0.35 0.30
0.01 0.07 0.01 0.00 0.00 0.08 0.05 0.33 0.17 0.23 0.39 0.94 0.25 0.52 0.91 0.62 2.37 0.74 1.13 1.04 1.08 0.53 0.39 0.73 0.91 0.88 1.25 0.89 1.38 1.38 1.74 1.95 1.66 1.98 2.49 2.40 1.59 0.78 0.81 1.07 1.49 1.95 1.73 1.84 1.70 1.75 1.51 1.45 1.14 1.61 2.46 2.11 2.13 2.74 3.29 3.43 2.70 2.41 2.10 1.61 1.00 0.96 0.63 0.93 1.10 1.25 1.23 1.29 1.44 0.62 1.16 0.86 0.86 0.89 0.82 0.78 0.69 0.74 1.32 0.76 0.48 0.41 0.57 0.83 0.69 0.94 0.79 0.78 0.98 0.67 0.90 1.11 0.58 0.71 0.71 0.58 0.54
0.01 0.02 0.01 0.05 0.22 0.18 0.05 0.10 0.32 0.35 0.54 0.65 0.60 0.70 0.61 0.81 1.53 0.60 0.81 0.64 0.70 0.68 0.98 1.23 1.09 1.32 1.75 1.76 1.54 1.73 1.65 1.74 1.69 1.85 2.61 2.25 1.26 0.87 1.27 1.59 1.45 1.82 1.31 1.45 2.17 1.72 0.98 1.01 1.88 1.64 1.83 1.93 2.59 2.37 2.19 2.38 2.46 2.59 2.47 1.58 0.71 0.93 1.00 1.34 1.41 1.15 1.40 1.47 1.11 1.08 1.03 1.15 1.33 0.77 0.67 0.30 0.43 0.71 0.69 0.47 0.63 0.88 1.14 0.86 0.60 0.80 0.92 1.04 0.84 0.56 0.70 0.57 0.43 0.37 0.50 0.45 0.75
0.00 0.00 0.02 0.00 0.06 0.06 0.12 0.04 0.25 0.20 0.51 0.32 1.52 0.92 1.46 1.23 1.68 0.46 0.98 0.89 0.68 0.76 0.53 0.76 1.31 1.59 1.95 2.13 1.96 1.55 1.68 2.00 2.00 2.23 2.06 1.85 1.11 1.37 1.69 2.48 2.55 2.01 1.88 1.77 1.78 1.61 1.67 1.48 1.73 1.67 2.52 2.36 1.85 2.53 2.57 2.79 2.44 2.35 1.94 1.82 1.95 1.88 1.80 1.38 0.84 0.88 0.79 1.04 0.88 1.27 1.40 0.93 0.82 0.82 0.58 0.49 0.62 0.85 0.51 0.53 0.79 0.37 0.43 0.44 0.53 0.52 0.84 1.07 0.77 0.82 0.60 0.38 0.34 0.49 0.41 0.33 0.55
0.01 0.00 0.01 0.01 0.00 0.14 0.03 0.04 0.04 0.25 0.26 0.29 0.56 1.09 1.23 1.08 0.65 0.88 0.89 0.58 0.45 0.53 0.72 1.38 2.06 2.07 2.04 1.71 2.44 2.63 2.04 1.67 1.44 1.82 2.13 1.85 1.58 1.63 1.85 2.43 3.68 3.50 2.51 2.09 1.98 2.17 2.33 1.64 0.74 0.72 1.46 1.28 1.34 1.52 1.55 1.74 2.09 0.99 1.74 1.78 2.24 1.86 1.56 1.85 1.29 0.76 0.81 0.82 1.13 1.07 1.08 1.00 1.19 1.65 0.62 0.73 0.79 0.89 0.56 0.61 0.70 0.50 0.57 0.51 0.58 0.45 0.50 0.83 0.77 0.47 0.58 0.35 0.42 0.69 0.56 0.40 0.41
0.01 0.01 0.04 0.05 0.03 0.12 0.16 0.60 0.03 0.03 0.12 0.37 0.41 1.07 1.34 0.96 1.00 0.96 1.68 1.51 1.46 1.04 1.28 1.70 2.12 2.23 2.12 2.23 2.95 2.75 1.64 1.22 0.97 1.43 1.57 2.08 2.54 2.16 2.03 2.82 4.38 5.08 3.85 2.59 2.17 2.07 2.33 1.80 1.10 1.11 1.44 1.80 1.84 1.18 1.56 1.89 0.97 1.17 1.32 1.14 1.76 2.00 1.76 1.45 1.71 2.09 1.01 0.87 0.78 0.79 0.84 1.18 0.62 1.27 1.19 0.79 0.45 0.76 0.52 0.53 0.55 0.61 0.64 0.77 0.56 0.48 0.60 0.64 0.45 0.58 0.45 0.38 0.34 0.43 0.35 0.48 0.37